Home   Weather   Tiraspol   Past weeks

Flag for Moldova Past Weather in Tiraspol, Moldova — Yesterday and Last 2 Weeks

Now
34 °F

Mostly cloudy.


Feels Like: 28 °F
Forecast: 19 / 33 °F
Wind: 7 mph from Northwest

Location: Chisinau International Airport

Current Time: Jan 22, 2017 at 6:05:51 am

Latest Report: Jan 22, 2017 at 5:30 am


Visibility: 6 mi

Pressure: 30.48 "Hg

Humidity: 100%

Dew Point: 34 °F

Location of TiraspolLocation

Past Weather in Tiraspol — Graph

°F

Tiraspol Temperature Yesterday

Maximum temperature yesterday: 36 °F (at 5:30 pm)
Minimum temperature yesterday: 25 °F (at 12:00 am)
Average temperature yesterday: 32 °F

High & Low Weather Summary for the Past Weeks

 TemperatureHumidityPressure
High41 °F (Jan 14, 11:00 am)100% (Jan 15, 3:00 am)30.69 "Hg (Jan 15, 3:00 am)
Low3 °F (Jan 7, 6:30 am)59% (Jan 13, 12:30 pm)29.47 "Hg (Jan 14, 9:30 am)
Average21 °F82%30.15 "Hg
* Reported Jan 7 4:00 am — Jan 22 4:30 am, Tiraspol, Weather by CustomWeather, © 2017

Note: Actual official high and low records may vary slightly from our data, if they occured in-between our weather recording intervals... More about our weather records

Advertising

Tiraspol Weather History for the Previous 24 Hours

Scroll right to see more
 ConditionsComfort  
Time TempWeatherWind HumidityBarometerVisibility
4:30 am
Sun, Jan 22
34 °FDrizzle. Mostly cloudy.5 mph100%30.45 "Hg6 mi
4:00 am34 °FDrizzle. Mostly cloudy.5 mph100%30.45 "Hg5 mi
3:30 am34 °FMostly cloudy.6 mph93%30.45 "Hg5 mi
3:00 am34 °FLight rain. Mostly cloudy.6 mph100%30.45 "Hg5 mi
2:30 am34 °FLight rain. Mostly cloudy.7 mph100%30.45 "Hg4 mi
2:00 am34 °FLight rain. Fog.7 mph100%30.45 "Hg3 mi
1:30 am36 °FDrizzle. Low clouds.5 mph93%30.42 "Hg4 mi
1:00 am34 °FDrizzle. Fog.3 mph100%30.42 "Hg3 mi
12:30 am34 °FDrizzle. Fog.5 mph100%30.42 "Hg2 mi
12:00 am36 °FDrizzle. Fog.5 mph93%30.42 "Hg3 mi
11:30 pm
Sat, Jan 21
36 °FDrizzle. Low clouds.6 mph87%30.42 "Hg4 mi
11:00 pm36 °FDrizzle. Low clouds.6 mph87%30.42 "Hg5 mi
10:30 pm36 °FDrizzle. Overcast.9 mph87%30.39 "Hg5 mi
10:00 pm36 °FOvercast.8 mph87%30.39 "HgN/A
9:30 pm36 °FOvercast.7 mph87%30.39 "HgN/A
9:00 pm36 °FOvercast.13 mph87%30.36 "HgN/A
8:30 pm36 °FOvercast.8 mph87%30.36 "HgN/A
8:00 pm36 °FOvercast.8 mph87%30.36 "HgN/A
7:30 pm36 °FOvercast.8 mph87%30.33 "HgN/A
7:00 pm36 °FOvercast.10 mph87%30.33 "HgN/A
6:30 pm34 °FLow clouds.10 mph93%30.33 "HgN/A
6:00 pm36 °FLow clouds.10 mph87%30.33 "HgN/A
5:30 pm36 °FOvercast.10 mph87%30.30 "HgN/A
5:00 pm34 °FOvercast.13 mph93%30.30 "HgN/A
4:30 pm34 °FLow clouds.12 mph93%30.30 "HgN/A
4:00 pm34 °FOvercast.12 mph93%30.30 "HgN/A
3:30 pm34 °FOvercast.13 mph93%30.30 "HgN/A
3:00 pm34 °FOvercast.10 mph87%30.30 "HgN/A
2:30 pm34 °FOvercast.12 mph87%30.30 "HgN/A
2:00 pm34 °FOvercast.12 mph87%30.30 "HgN/A
1:30 pm34 °FMore clouds than sun.13 mph87%30.30 "HgN/A
1:00 pm34 °FMostly cloudy.9 mph93%30.33 "HgN/A
12:30 pm34 °FMostly cloudy.8 mph87%30.33 "HgN/A
12:00 pm34 °FMostly cloudy.8 mph87%30.33 "HgN/A
11:30 am34 °FMostly cloudy.10 mph87%30.33 "HgN/A
11:00 am32 °FLight rain. Ice fog.8 mph100%30.33 "Hg2 mi
10:30 am34 °FLight snow. Fog.3 mph87%30.33 "Hg3 mi
10:00 am32 °FLight snow. Ice fog.6 mph93%30.33 "Hg2 mi
9:30 am30 °FLight snow. Ice fog.8 mph93%30.33 "Hg2 mi
9:00 am30 °FLight snow. Ice fog.8 mph93%30.33 "Hg1 mi
8:30 am30 °FLight snow. Ice fog.7 mph93%30.33 "Hg1 mi
8:00 am28 °FLight freezing rain. Ice fog.6 mph100%30.33 "Hg1 mi
7:30 am28 °FLight freezing rain. Ice fog.6 mph100%30.33 "Hg1 mi
7:00 am30 °FLight freezing rain. Ice fog.3 mph93%30.33 "Hg1 mi
6:30 am28 °FLight freezing rain. Ice fog.6 mph100%30.33 "Hg1 mi
6:00 am28 °FLight freezing rain. Ice fog.7 mph100%30.33 "Hg1 mi
Weather by CustomWeather, © 2017

See weather overviewHow to use our weather pages